St. Joseph, KS

8:52 AM CDT on September 19, 2017 (GMT -0500)
Rosecrans Memorial

Weather History for KSTJ - October, 2012

Change the Weather History Date:

Tuesday, October 23, 2012

  Actual Average Record
Temperature  
Mean Temperature 70 °F 52 °F  
Max Temperature 84 °F 64 °F 91 °F (1939)
Min Temperature 56 °F 40 °F 24 °F (1937)
Degree Days  
Heating Degree Days 0 13  
Month to date heating degree days 239 220  
Since 1 July heating degree days 349 300  
Cooling Degree Days 5 0  
Month to date cooling degree days 18 18  
Year to date cooling degree days 1549 1217  
Growing Degree Days 18 (Base 50)    
Moisture  
Dew Point 62 °F    
Average Humidity 72    
Maximum Humidity 93    
Minimum Humidity 51    
Precipitation  
Precipitation 0.00 in 0.10 in 1.57 in (1947)
Month to date precipitation 1.60 2.14  
Year to date precipitation 20.47 31.86  
Sea Level Pressure  
Sea Level Pressure 29.74 in    
Wind  
Wind Speed 12 mph (South)    
Max Wind Speed 24 mph    
Max Gust Speed 32 mph    
Visibility 10 miles    
Events      
T = Trace of Precipitation, MM = Missing Value Source: NWS Daily Summary

Daily Weather History Graph

Daily Weather History Graph

Search for Another Location

Airport or City:

Trip Planner

Search our weather history database for the weather conditions in past years. The results will help you decide how hot, cold, wet, or windy it might be!

Date:

Astronomy

Oct. 23, 2012 Rise Set
Actual Time 7:38 AM CDT 6:28 PM CDT
Civil Twilight 7:11 AM CDT 6:55 PM CDT
Nautical Twilight 6:39 AM CDT 7:27 PM CDT
Astronomical Twilight 6:08 AM CDT 7:58 PM CDT
Moon 3:11 PM CDT (10/23) 1:32 AM CDT (10/23)
Length of Visible Light 11h 44m
Length of Day
10h 49m
Waxing Gibbous, 67% of the Moon is Illuminated
Oct 23
Waxing Gibbous
Oct 29
Full
Nov 6
Last Quarter
Nov 13
New
Nov 20
First Quarter

Hourly Weather History & Observations

Time (CDT) Temp. Heat Index Dew Point Humidity Pressure Visibility Wind Dir Wind Speed Gust Speed Precip Events Conditions
1:53 AM 59.0 °F - 55.9 °F 90% 29.79 in 8.0 mi Calm Calm - N/A   Clear
2:53 AM 60.1 °F - 55.9 °F 86% 29.78 in 9.0 mi Calm Calm - N/A   Scattered Clouds
3:53 AM 57.9 °F - 55.0 °F 90% 29.76 in 9.0 mi Calm Calm - N/A   Partly Cloudy
4:53 AM 55.9 °F - 54.0 °F 93% 29.76 in 8.0 mi Calm Calm - N/A   Partly Cloudy
5:35 AM 60.8 °F - 57.2 °F 88% 29.77 in 9.0 mi South 5.8 mph - N/A   Overcast
5:53 AM 66.0 °F - 62.1 °F 87% 29.75 in 10.0 mi South 6.9 mph - N/A   Overcast
6:03 AM 68.0 °F - 62.6 °F 83% 29.77 in 10.0 mi South 9.2 mph - N/A   Overcast
6:53 AM 70.0 °F - 63.0 °F 78% 29.75 in 10.0 mi South 13.8 mph - N/A   Overcast
7:53 AM 70.0 °F - 64.0 °F 81% 29.76 in 10.0 mi South 11.5 mph - N/A   Overcast
8:06 AM 69.8 °F - 64.4 °F 83% 29.78 in 10.0 mi South 9.2 mph - N/A   Overcast
8:53 AM 71.1 °F - 64.0 °F 78% 29.78 in 10.0 mi South 8.1 mph - N/A   Overcast
9:53 AM 73.0 °F - 64.9 °F 76% 29.77 in 10.0 mi South 11.5 mph - N/A   Overcast
10:53 AM 75.0 °F - 64.9 °F 71% 29.75 in 10.0 mi South 15.0 mph - N/A   Overcast
11:53 AM 75.9 °F - 64.0 °F 67% 29.74 in 10.0 mi South 17.3 mph 25.3 mph N/A   Overcast
12:03 PM 75.2 °F - 64.4 °F 69% 29.75 in 10.0 mi South 16.1 mph 23.0 mph N/A   Overcast
12:18 PM 77.0 °F - 64.4 °F 65% 29.75 in 10.0 mi SSW 16.1 mph - N/A   Overcast
12:53 PM 77.0 °F - 63.0 °F 62% 29.72 in 10.0 mi South 20.7 mph 25.3 mph N/A   Overcast
1:53 PM 80.1 °F 81.5 °F 63.0 °F 56% 29.68 in 10.0 mi South 20.7 mph 26.5 mph N/A   Mostly Cloudy
2:53 PM 82.0 °F 83.4 °F 64.0 °F 54% 29.67 in 10.0 mi South 20.7 mph 24.2 mph N/A   Mostly Cloudy
3:53 PM 82.9 °F 84.0 °F 63.0 °F 51% 29.66 in 10.0 mi South 20.7 mph 28.8 mph N/A   Clear
4:53 PM 82.0 °F 83.4 °F 64.0 °F 54% 29.67 in 10.0 mi South 20.7 mph 27.6 mph N/A   Clear
6:53 PM 77.0 °F - 64.0 °F 64% 29.69 in 10.0 mi South 13.8 mph - N/A   Clear
7:53 PM 75.0 °F - 64.0 °F 69% 29.71 in 10.0 mi South 12.7 mph - N/A   Clear
8:53 PM 73.9 °F - 64.0 °F 71% 29.73 in 10.0 mi South 13.8 mph 24.2 mph N/A   Clear
9:53 PM 73.0 °F - 64.9 °F 76% 29.73 in 10.0 mi South 15.0 mph - N/A   Clear
10:53 PM 72.0 °F - 64.9 °F 78% 29.74 in 10.0 mi South 13.8 mph 24.2 mph N/A   Partly Cloudy
11:48 PM 71.6 °F - 64.4 °F 78% 29.76 in 10.0 mi South 12.7 mph - N/A   Scattered Clouds
11:53 PM 72.0 °F - 64.9 °F 78% 29.74 in 10.0 mi South 15.0 mph - N/A   Partly Cloudy